Regional Weather Roundup
Issued by NWS Charleston, WV

Home | Current Version | Previous Version | Graphics & Text | Print | Product List | Glossary On
Versions: 1 2 3 4 5 6 7 8 9 10 11 12 13 14 15 16 17 18 19 20 21 22 23 24 25 26 27 28 29 30 31 32 33 34 35 36 37 38 39 40 41 42 43 44 45 46 47 48 49 50
000
ASUS41 KRLX 270510
RWRRLX
West Virginia Regional Weather Roundup
National Weather Service Charleston WV
100 AM EDT MON APR 27 2015

Note: "fair" indicates few or no clouds below 12,000 feet with no
significant weather and/or obstructions to visibility.

WVZ003-270600-
Northern Panhandle of West Virginia

CITY           SKY/WX    TMP DP  RH WIND       PRES   REMARKS
WHEELING       CLEAR     43  30  60 NW8       29.84F
$$

WVZ009-270600-
Northwest West Virginia

CITY           SKY/WX    TMP DP  RH WIND       PRES   REMARKS
PARKERSBURG    CLEAR     45  29  53 NW6       29.89R
$$

WVZ006-270600-
Western West Virginia

CITY           SKY/WX    TMP DP  RH WIND       PRES   REMARKS
HUNTINGTON     CLEAR     47  32  56 N5        29.86R
$$

WVZ015-270600-
West Central West Virginia

CITY           SKY/WX    TMP DP  RH WIND       PRES   REMARKS
CHARLESTON     CLEAR     49  31  49 CALM      29.84R
$$

WVZ022-031-270600-
North Central West Virginia

CITY           SKY/WX    TMP DP  RH WIND       PRES   REMARKS
CLARKSBURG     CLEAR     44  30  57 N7        29.83R
MORGANTOWN     CLEAR     45  27  49 N5        29.83S
$$

WVZ025-035-042-045-270600-
Southern West Virginia

CITY           SKY/WX    TMP DP  RH WIND       PRES   REMARKS
BECKLEY        CLEAR     38  35  89 S3        29.81R
LOGAN            N/A     48  32  53 VRB6      29.81R
BLUEFIELD      CLEAR     41  37  86 W8        29.83R
LEWISBURG      CLEAR     40  39  95 CALM      29.79S
$$

WVZ047-270600-
Northern Mountains of West Virginia

CITY           SKY/WX    TMP DP  RH WIND       PRES   REMARKS
ELKINS         CLEAR     42  29  59 N5        29.81R
$$

WVZ052-270600-
Eastern Panhandle of West Virginia

CITY           SKY/WX    TMP DP  RH WIND       PRES   REMARKS
MARTINSBURG    CLEAR     50  30  46 N9        29.77R
PETERSBURG     CLEAR     40  33  75 CALM      29.80S
$$


USA.gov is the U.S. government's official web portal to all federal, state and local government web resources and services.